| time (UTC) | temp F | wind direction | speed MPH | gust MPH | rain 1hr in | rain 24hr in | rain mn in | humidity % | barometer mb |
| 20260509040523 | 57 | 306 | 0.0 | 0.0 | 0.00 | 0.01 | 0.01 | 76 | 1013.2 |
| 20260509035453 | 57 | 277 | 0.0 | 0.0 | 0.00 | 0.01 | 0.01 | 76 | 1013.2 |
| 20260509034453 | 57 | 277 | 0.0 | 0.0 | 0.00 | 0.01 | 0.01 | 75 | 1013.4 |
| 20260509032453 | 57 | 193 | 0.0 | 0.0 | 0.00 | 0.01 | 0.01 | 75 | 1013.4 |
| 20260509031453 | 57 | 234 | 0.0 | 0.0 | 0.00 | 0.01 | 0.01 | 74 | 1013.4 |
| 20260509030453 | 57 | 235 | 0.0 | 0.0 | 0.00 | 0.01 | 0.01 | 74 | 1013.4 |
| 20260509025453 | 57 | 311 | 0.0 | 0.0 | 0.00 | 0.01 | 0.01 | 73 | 1013.5 |
| 20260509024523 | 57 | 207 | 0.0 | 2.0 | 0.00 | 0.01 | 0.01 | 73 | 1013.4 |
| 20260509023453 | 57 | 257 | 0.0 | 0.0 | 0.00 | 0.01 | 0.01 | 72 | 1013.3 |
| 20260509022453 | 58 | 255 | 0.0 | 0.0 | 0.00 | 0.01 | 0.01 | 71 | 1013.4 |
| 20260509021453 | 58 | 256 | 0.0 | 0.0 | 0.00 | 0.01 | 0.01 | 69 | 1013.3 |
| 20260509020523 | 59 | 256 | 0.0 | 0.0 | 0.00 | 0.01 | 0.01 | 67 | 1013.3 |
| 20260509015453 | 59 | 253 | 1.0 | 2.0 | 0.00 | 0.01 | 0.01 | 67 | 1013.2 |
| 20260509014453 | 59 | 208 | 0.0 | 0.0 | 0.00 | 0.01 | 0.01 | 66 | 1013.2 |
| 20260509013453 | 60 | 276 | 0.0 | 2.0 | 0.00 | 0.01 | 0.01 | 65 | 1013.2 |
| 20260509012453 | 60 | 341 | 0.0 | 0.0 | 0.00 | 0.01 | 0.01 | 63 | 1013.1 |
| 20260509011453 | 60 | 316 | 0.0 | 0.0 | 0.00 | 0.01 | 0.01 | 65 | 1012.9 |
| 20260509010453 | 61 | 24 | 0.0 | 0.0 | 0.00 | 0.01 | 0.01 | 64 | 1012.8 |
| 20260509005453 | 61 | 148 | 0.0 | 0.0 | 0.00 | 0.01 | 0.01 | 64 | 1012.8 |
| 20260509004453 | 61 | 148 | 0.0 | 0.0 | 0.00 | 0.01 | 0.01 | 64 | 1012.7 |
| 20260509003524 | 61 | 108 | 0.0 | 0.0 | 0.00 | 0.01 | 0.01 | 64 | 1012.7 |
| 20260509002523 | 62 | 103 | 0.0 | 0.0 | 0.00 | 0.01 | 0.01 | 63 | 1012.7 |
| 20260509001453 | 62 | 53 | 0.0 | 0.0 | 0.00 | 0.01 | 0.01 | 62 | 1012.6 |
| 20260509000455 | 62 | 46 | 0.0 | 0.0 | 0.00 | 0.01 | 0.01 | 62 | 1012.5 |
| 20260508235453 | 62 | 252 | 0.0 | 0.0 | 0.00 | 0.01 | 0.01 | 61 | 1012.5 |
| 20260508234453 | 63 | 338 | 0.0 | 0.0 | 0.00 | 0.01 | 0.01 | 59 | 1012.4 |
| 20260508233453 | 64 | 245 | 0.0 | 0.0 | 0.00 | 0.01 | 0.01 | 57 | 1012.3 |
| 20260508232453 | 64 | 246 | 0.0 | 0.0 | 0.00 | 0.01 | 0.01 | 56 | 1012.2 |
| 20260508231454 | 65 | 336 | 0.0 | 0.0 | 0.00 | 0.01 | 0.01 | 55 | 1012.1 |
| 20260508230453 | 65 | 72 | 0.0 | 1.0 | 0.00 | 0.01 | 0.01 | 53 | 1012.1 |
| 20260508225453 | 66 | 91 | 0.0 | 0.0 | 0.00 | 0.01 | 0.01 | 53 | 1012.0 |
| 20260508224453 | 66 | 91 | 0.0 | 0.0 | 0.00 | 0.01 | 0.01 | 52 | 1012.1 |
| 20260508223453 | 67 | 91 | 0.0 | 0.0 | 0.00 | 0.01 | 0.01 | 46 | 1012.2 |
| 20260508222453 | 67 | 49 | 0.0 | 1.0 | 0.00 | 0.01 | 0.01 | 49 | 1012.3 |
| 20260508221453 | 67 | 165 | 1.0 | 3.0 | 0.00 | 0.01 | 0.01 | 46 | 1012.2 |
| 20260508220453 | 67 | 140 | 0.0 | 3.0 | 0.00 | 0.01 | 0.01 | 45 | 1012.2 |
| 20260508215454 | 68 | 34 | 0.0 | 2.0 | 0.00 | 0.01 | 0.01 | 49 | 1012.2 |
| 20260508214454 | 69 | 131 | 2.0 | 2.0 | 0.00 | 0.01 | 0.01 | 44 | 1012.1 |
| 20260508213454 | 70 | 245 | 2.0 | 3.0 | 0.00 | 0.01 | 0.01 | 43 | 1012.2 |
| 20260508212523 | 70 | 225 | 0.0 | 1.0 | 0.00 | 0.01 | 0.01 | 38 | 1012.3 |
| 20260508211524 | 70 | 167 | 1.0 | 3.0 | 0.00 | 0.01 | 0.01 | 38 | 1012.3 |
| 20260508210454 | 70 | 205 | 6.0 | 6.0 | 0.00 | 0.01 | 0.01 | 37 | 1012.4 |
| 20260508205454 | 70 | 206 | 1.0 | 4.0 | 0.00 | 0.01 | 0.01 | 40 | 1012.4 |
| 20260508204454 | 70 | 170 | 1.0 | 3.0 | 0.00 | 0.01 | 0.01 | 40 | 1012.5 |
| 20260508203454 | 70 | 200 | 2.0 | 2.0 | 0.00 | 0.01 | 0.01 | 38 | 1012.6 |
| 20260508202524 | 70 | 200 | 0.0 | 3.0 | 0.00 | 0.01 | 0.01 | 40 | 1012.7 |
| 20260508201454 | 70 | 35 | 1.0 | 4.0 | 0.00 | 0.01 | 0.01 | 39 | 1012.9 |
| 20260508200454 | 70 | 275 | 3.0 | 3.0 | 0.00 | 0.01 | 0.01 | 39 | 1012.8 |
| 20260508194454 | 70 | 223 | 0.0 | 3.0 | 0.00 | 0.02 | 0.01 | 39 | 1013.2 |
| 20260508193454 | 69 | 225 | 1.0 | 4.0 | 0.00 | 0.03 | 0.01 | 38 | 1013.2 |
| 20260508192454 | 69 | 140 | 3.0 | 3.0 | 0.00 | 0.03 | 0.01 | 39 | 1013.4 |
| 20260508191454 | 70 | 274 | 0.0 | 2.0 | 0.00 | 0.03 | 0.01 | 39 | 1013.5 |
| 20260508190454 | 69 | 275 | 0.0 | 7.0 | 0.00 | 0.03 | 0.01 | 38 | 1013.6 |
| 20260508185454 | 69 | 124 | 0.0 | 3.0 | 0.00 | 0.03 | 0.01 | 38 | 1013.8 |
| 20260508184454 | 70 | 261 | 2.0 | 3.0 | 0.00 | 0.03 | 0.01 | 44 | 1013.9 |
| 20260508183453 | 68 | 260 | 2.0 | 3.0 | 0.00 | 0.03 | 0.01 | 42 | 1013.9 |
| 20260508182454 | 68 | 184 | 0.0 | 5.0 | 0.00 | 0.03 | 0.01 | 42 | 1014.1 |
| 20260508181454 | 68 | 288 | 2.0 | 3.0 | 0.00 | 0.03 | 0.01 | 40 | 1014.3 |
| 20260508180454 | 68 | 266 | 0.0 | 2.0 | 0.00 | 0.03 | 0.01 | 41 | 1014.3 |
| 20260508175454 | 68 | 223 | 2.0 | 4.0 | 0.00 | 0.03 | 0.01 | 41 | 1014.4 |
| 20260508174454 | 67 | 88 | 1.0 | 4.0 | 0.00 | 0.03 | 0.01 | 40 | 1014.5 |
| 20260508173454 | 67 | 217 | 0.0 | 3.0 | 0.00 | 0.03 | 0.01 | 45 | 1014.5 |
| 20260508172454 | 66 | 171 | 2.0 | 2.0 | 0.00 | 0.03 | 0.01 | 40 | 1014.6 |
| 20260508171454 | 66 | 159 | 3.0 | 4.0 | 0.00 | 0.03 | 0.01 | 41 | 1014.7 |
| 20260508170454 | 66 | 259 | 1.0 | 3.0 | 0.00 | 0.03 | 0.01 | 41 | 1014.8 |
| 20260508165454 | 66 | 256 | 5.0 | 7.0 | 0.00 | 0.03 | 0.01 | 43 | 1014.9 |
| 20260508164454 | 66 | 174 | 0.0 | 2.0 | 0.00 | 0.03 | 0.01 | 34 | 1015.0 |
| 20260508163454 | 65 | 196 | 1.0 | 3.0 | 0.00 | 0.03 | 0.01 | 36 | 1015.1 |
| 20260508162454 | 65 | 107 | 0.0 | 2.0 | 0.00 | 0.03 | 0.01 | 41 | 1015.2 |
| 20260508160454 | 64 | 228 | 0.0 | 2.0 | 0.00 | 0.03 | 0.01 | 49 | 1015.4 |
| 20260508155454 | 64 | 143 | 0.0 | 3.0 | 0.00 | 0.03 | 0.01 | 47 | 1015.5 |
| 20260508154454 | 63 | 207 | 0.0 | 1.0 | 0.00 | 0.03 | 0.01 | 50 | 1015.5 |
| 20260508152454 | 63 | 164 | 1.0 | 3.0 | 0.00 | 0.03 | 0.01 | 52 | 1015.7 |
| 20260508151454 | 62 | 360 | 0.0 | 1.0 | 0.00 | 0.03 | 0.01 | 43 | 1015.7 |
| 20260508150454 | 62 | 290 | 0.0 | 0.0 | 0.00 | 0.03 | 0.01 | 37 | 1015.8 |
| 20260508145454 | 62 | 293 | 0.0 | 3.0 | 0.00 | 0.03 | 0.01 | 38 | 1015.8 |
| 20260508144454 | 60 | 131 | 0.0 | 1.0 | 0.00 | 0.03 | 0.01 | 39 | 1015.7 |
| 20260508143454 | 61 | 175 | 0.0 | 1.0 | 0.00 | 0.03 | 0.01 | 46 | 1015.8 |
| 20260508142454 | 60 | 61 | 0.0 | 0.0 | 0.00 | 0.03 | 0.01 | 45 | 1015.9 |
| 20260508141454 | 60 | 19 | 0.0 | 2.0 | 0.00 | 0.03 | 0.01 | 42 | 1015.9 |
| 20260508140454 | 59 | 274 | 0.0 | 1.0 | 0.00 | 0.03 | 0.01 | 42 | 1016.0 |
| 20260508135454 | 60 | 271 | 0.0 | 4.0 | 0.00 | 0.03 | 0.01 | 53 | 1016.0 |
| 20260508134524 | 59 | 336 | 0.0 | 0.0 | 0.00 | 0.03 | 0.01 | 42 | 1016.0 |
| 20260508133454 | 58 | 346 | 0.0 | 1.0 | 0.00 | 0.03 | 0.01 | 51 | 1016.0 |
| 20260508132454 | 58 | 273 | 0.0 | 3.0 | 0.00 | 0.03 | 0.01 | 56 | 1016.0 |
| 20260508131454 | 57 | 261 | 3.0 | 4.0 | 0.00 | 0.03 | 0.01 | 56 | 1016.0 |
| 20260508130454 | 56 | 280 | 0.0 | 3.0 | 0.00 | 0.03 | 0.01 | 64 | 1016.0 |
| 20260508125454 | 55 | 256 | 0.0 | 3.0 | 0.00 | 0.03 | 0.01 | 67 | 1015.9 |
| 20260508124624 | 55 | 256 | 0.0 | 2.0 | 0.00 | 0.03 | 0.01 | 67 | 1015.8 |
| 20260508123454 | 55 | 296 | 0.0 | 1.0 | 0.00 | 0.03 | 0.01 | 71 | 1015.7 |
| 20260508122454 | 54 | 295 | 0.0 | 1.0 | 0.00 | 0.03 | 0.01 | 71 | 1015.6 |
| 20260508121454 | 53 | 33 | 0.0 | 0.0 | 0.00 | 0.03 | 0.01 | 77 | 1015.5 |
| 20260508120524 | 52 | 306 | 1.0 | 3.0 | 0.00 | 0.03 | 0.01 | 77 | 1015.5 |
| 20260508115454 | 52 | 256 | 0.0 | 2.0 | 0.00 | 0.03 | 0.01 | 81 | 1015.4 |
| 20260508114524 | 50 | 151 | 0.0 | 0.0 | 0.00 | 0.03 | 0.01 | 84 | 1015.4 |
| 20260508113454 | 49 | 138 | 0.0 | 0.0 | 0.00 | 0.03 | 0.01 | 88 | 1015.2 |
| 20260508112524 | 48 | 138 | 0.0 | 0.0 | 0.00 | 0.03 | 0.01 | 89 | 1015.1 |
| 20260508110454 | 47 | 138 | 0.0 | 0.0 | 0.01 | 0.03 | 0.01 | 90 | 1014.9 |
| 20260508105454 | 46 | 173 | 0.0 | 0.0 | 0.01 | 0.04 | 0.01 | 90 | 1014.8 |
| 20260508104454 | 46 | 173 | 0.0 | 0.0 | 0.01 | 0.04 | 0.01 | 91 | 1014.6 |
| 20260508102454 | 45 | 325 | 0.0 | 0.0 | 0.01 | 0.04 | 0.01 | 91 | 1014.3 |
| 20260508101454 | 45 | 325 | 0.0 | 0.0 | 0.01 | 0.04 | 0.01 | 91 | 1014.3 |
| 20260508100454 | 46 | 325 | 0.0 | 0.0 | 0.00 | 0.03 | 0.00 | 91 | 1014.3 |
| 20260508095454 | 46 | 325 | 0.0 | 0.0 | 0.00 | 0.03 | 0.00 | 91 | 1014.0 |
| 20260508094454 | 46 | 325 | 0.0 | 0.0 | 0.00 | 0.03 | 0.00 | 91 | 1014.0 |
| 20260508093454 | 46 | 306 | 0.0 | 0.0 | 0.00 | 0.03 | 0.00 | 91 | 1013.9 |
| 20260508092454 | 46 | 306 | 0.0 | 0.0 | 0.00 | 0.03 | 0.00 | 91 | 1013.9 |
| 20260508091454 | 47 | 306 | 0.0 | 0.0 | 0.00 | 0.03 | 0.00 | 92 | 1013.8 |
| 20260508090454 | 47 | 306 | 0.0 | 0.0 | 0.00 | 0.03 | 0.00 | 92 | 1013.7 |
| 20260508084524 | 47 | 255 | 0.0 | 0.0 | 0.00 | 0.03 | 0.00 | 92 | 1013.5 |
| 20260508083454 | 48 | 257 | 0.0 | 0.0 | 0.00 | 0.03 | 0.00 | 92 | 1013.2 |
| 20260508082454 | 48 | 254 | 0.0 | 0.0 | 0.00 | 0.03 | 0.00 | 92 | 1013.1 |
| 20260508080454 | 48 | 254 | 0.0 | 0.0 | 0.00 | 0.03 | 0.00 | 92 | 1013.0 |
| 20260508075454 | 48 | 256 | 0.0 | 0.0 | 0.00 | 0.03 | 0.00 | 92 | 1012.9 |
| 20260508074454 | 48 | 229 | 0.0 | 1.0 | 0.00 | 0.03 | 0.00 | 92 | 1012.8 |
| 20260508073454 | 49 | 217 | 0.0 | 0.0 | 0.00 | 0.03 | 0.00 | 92 | 1012.7 |
| 20260508072524 | 48 | 217 | 0.0 | 0.0 | 0.00 | 0.03 | 0.00 | 92 | 1012.7 |
| 20260508070454 | 48 | 278 | 0.0 | 0.0 | 0.00 | 0.03 | 0.00 | 92 | 1012.4 |
| 20260508065524 | 48 | 278 | 0.0 | 0.0 | 0.00 | 0.03 | 0.00 | 92 | 1012.3 |
| 20260508064454 | 48 | 278 | 0.0 | 0.0 | 0.00 | 0.03 | 0.00 | 92 | 1012.2 |
| 20260508062454 | 48 | 278 | 0.0 | 0.0 | 0.00 | 0.03 | 0.00 | 92 | 1012.0 |
| 20260508061454 | 49 | 278 | 0.0 | 0.0 | 0.00 | 0.03 | 0.00 | 91 | 1011.9 |
| 20260508060524 | 49 | 278 | 0.0 | 0.0 | 0.00 | 0.03 | 0.00 | 91 | 1012.0 |
| 20260508055454 | 49 | 278 | 0.0 | 0.0 | 0.00 | 0.03 | 0.00 | 92 | 1011.8 |
| 20260508054454 | 50 | 278 | 0.0 | 0.0 | 0.00 | 0.03 | 0.00 | 91 | 1011.9 |
| 20260508053454 | 49 | 278 | 0.0 | 0.0 | 0.00 | 0.03 | 0.00 | 91 | 1011.8 |
| 20260508052524 | 50 | 278 | 0.0 | 0.0 | 0.00 | 0.05 | 0.00 | 91 | 1011.8 |
| 20260508051454 | 50 | 278 | 0.0 | 0.0 | 0.00 | 0.07 | 0.00 | 91 | 1011.8 |
| 20260508050454 | 50 | 278 | 0.0 | 0.0 | 0.00 | 0.07 | 0.00 | 91 | 1011.8 |
| 20260508045454 | 50 | 278 | 0.0 | 0.0 | 0.00 | 0.07 | 0.00 | 91 | 1011.8 |
| 20260508044454 | 50 | 278 | 0.0 | 0.0 | 0.00 | 0.07 | 0.00 | 91 | 1011.8 |
| 20260508043454 | 50 | 279 | 0.0 | 0.0 | 0.00 | 0.07 | 0.00 | 91 | 1011.8 |
| 20260508042454 | 50 | 279 | 0.0 | 0.0 | 0.00 | 0.07 | 0.00 | 90 | 1011.7 |
| 20260508041454 | 49 | 279 | 0.0 | 0.0 | 0.00 | 0.07 | 0.00 | 90 | 1011.7 |